PAWGPAPG

Guest
Details From PAWG - Wrangell
To PAPG - Petersburg James A Johnson
Flight Number -
Tags Routegen Generated
Created
Modified
Stats Distance 30 nm / 55 km
Max Altitude 100 ft / 30 m
Waypoints 5
Social Downloads 13
Likes 0
Share

Download

Looking for another format? Having issues loading an existing format? Contact us
Advertisement - Login to hide

Notes

Departing runway 30 PAWG. Arriving runway 7 PAPG.

Route

PAWG +56.53_-132.49 +56.68_-132.65 +56.83_-132.81 PAPG

ID Type Via Altitude (ft/m) Position (lat/lon) Dist (leg/tot) Name
O PAWG APT - 0 / 0 56.48860 / -132.38250 - / 0 nm
+56.53_-132.49 LATLON - 100 / 30 56.52631 / -132.49443 4 / 4 nm
+56.68_-132.65 LATLON - 100 / 30 56.67724 / -132.65037 10 / 14 nm
+56.83_-132.81 LATLON - 100 / 30 56.82818 / -132.80631 10 / 25 nm
O PAPG APT - 0 / 0 56.80436 / -132.93116 4 / 29 nm

Altitude Profile

Advertisement - Login to hide

PAWG

Details ICAO PAWG (WRG)
Name Wrangell
Region USA (Alaska)
Timezone America/Juneau (UTC-8.0)
Stats Elevation 44 ft / 13 m (AMSL)
Location 56.484300° -132.370000°
Runways 1
Magnetic Variation 17.953° E

METAR

PAWG 140056Z 07006KT 10SM -RA FEW025 BKN050 OVC060 06/04 A3047

Decode

TAF

PAWG 132323Z 1400/1424 09008KT P6SM -RA FEW015 SCT025 OVC040 FM140600 VRB06KT P6SM VCSH OVC030 FM141500 VRB05KT P6SM OVC050 AMD LTD TO CLD VIS AND WIND 1406/1415

Decode

Departure Runways

ID Width Length Bearing (true/mag) Surface Threshold Overrun Markings Lighting
10 157 ft / 48 m 5,985 ft / 1,824 m 121.40° / 103.45° ASPHALT 0 ft / 0 m 197 ft / 60 m PREC-APP CENTERLINE EDGE THRESHOLD
28 157 ft / 48 m 5,985 ft / 1,824 m 301.42° / 283.47° ASPHALT 0 ft / 0 m 197 ft / 60 m PREC-APP CENTERLINE EDGE THRESHOLD

PAPG

Details ICAO PAPG (PSG)
Name Petersburg James A. Johnson
Region USA (Alaska)
Timezone America/Juneau (UTC-8.0)
Stats Elevation 113 ft / 34 m (AMSL)
Location 56.801500° -132.946000°
Runways 1
Magnetic Variation 17.991° E

METAR

PAPG 140056Z 34004KT 10SM -RA OVC021 06/03 A3045 RMK AO2 SLP316 P0000 T00560033

Decode

TAF

PAPG 132323Z 1400/1424 VRB04KT 6SM -RA BR FEW010 OVC020 FM140800 VRB02KT 2SM -SHRA BR OVC007 FM141400 VRB03KT P6SM VCSH FEW015 OVC030 AMD LTD TO CLD VIS AND WIND 1406/1415

Decode

Destination Runways

ID Width Length Bearing (true/mag) Surface Threshold Overrun Markings Lighting
05 150 ft / 46 m 6,382 ft / 1,945 m 70.70° / 52.70° ASPHALT 0 ft / 0 m 200 ft / 61 m PREC-APP CENTERLINE EDGE THRESHOLD RAIL REIL-OMNI
23 150 ft / 46 m 6,382 ft / 1,945 m 250.72° / 232.73° ASPHALT 400 ft / 122 m 200 ft / 61 m PREC-APP CENTERLINE EDGE THRESHOLD ODALS REIL-OMNI

Approach Navaids

Runway Type Ident Frequency Range Bearing (true/mag) Slope Elevation
23 LOC-LOC IPSG 110.50 MHz 18 nm / 33 km 250.71° / 232.72 ° - 113 ft / 34 m (AMSL)

Popular Alternatives